Regional Weather Roundup
Issued by NWS

Home | Current Version | Previous Version | Graphics & Text | Print | Product List | Glossary On
Versions: 1 2 3 4 5 6 7 8 9 10 11 12 13 14 15 16 17 18 19 20 21 22 23 24 25 26 27 28 29 30 31 32 33 34 35 36 37 38 39 40 41 42 43 44 45 46 47 48 49 50
000
ASUS45 KBOU 281707
RWRCO

WEATHER ROUNDUP FOR COLORADO
NATIONAL WEATHER SERVICE DENVER/BOULDER CO
1000 AM MST SUN DEC 28 2014

NOTE: "FAIR" INDICATES FEW OR NO CLOUDS BELOW 12000 FEET WITH NO
SIGNIFICANT WEATHER AND/OR OBSTRUCTIONS TO VISIBILITY.

COZ001>005-013-030-031-281800-
...NORTHWEST COLORADO...

CITY           SKY/WX    TMP DP  RH WIND       PRES   REMARKS
CRAIG          CLOUDY    17  11  77 E3        30.05S
HAYDEN         CLOUDY    12   7  79 SE7       30.03S WCI   2
MEEKER         CLOUDY    22   9  57 SW8       30.04F WCI  12
MOUNT WERNER   NOT AVBL
STEAMBOAT SPGS CLOUDY     8   4  85 CALM      30.02F VSB 3/4
WALDEN         CLOUDY    16   7  67 S13       29.93R WCI   2
$$

COZ006>008-011-281800-
...WEST CENTRAL VALLEYS...

CITY           SKY/WX    TMP DP  RH WIND       PRES   REMARKS
GRAND JUNCTION CLOUDY    22  11  62 CALM      30.17S
MONTROSE       CLOUDY    20  11  68 SE10      30.18F WCI   9
EAGLE          FLURRIES  16  12  86 CALM      30.11F
RIFLE          FLURRIES  16  12  84 CALM      30.15F
DELTA          CLOUDY    22  11  62 NE3       30.19F
NUCLA          CLOUDY    19  10  68 SE3       30.21F
$$

COZ017>023-064>068-281800-
...SOUTHWEST COLORADO...

CITY           SKY/WX    TMP DP  RH WIND       PRES   REMARKS
DURANGO        PTSUNNY   12  11  95 NE5       30.16R WCI   4
CORTEZ         PTSUNNY   21  10  62 CALM      30.20R
PAGOSA SPRINGS SUNNY    N/A N/A N/A CALM      30.12R
TELLURIDE      CLOUDY    15  -1  48 W9        30.08R WCI   3
WOLF CREEK PAS SUNNY     10   1  67 MISG      29.97R
$$

COZ009-010-012-014-032>034-037-058>063-281800-
...CENTRAL COLORADO...

CITY           SKY/WX    TMP DP  RH WIND       PRES   REMARKS
ASPEN          LGT SNOW  12   8  84 CALM      30.03F FOG
BUENA VISTA    PTSUNNY   25   5  42 W20G38    29.97S WCI  11
COPPER MTN     LGT SNOW   7   0  72 W14       29.88S VSB 3/4 WCI -10
BERTHOUD PASS  NOT AVBL
COTTONWOOD PAS CLOUDY    21   5  49 W26G46    29.91R HAZE    WCI   4
GUNNISON       PTSUNNY   -6 -15  65 CALM      30.17S
KREMMLING      CLOUDY     9   3  78 SE5       30.02F WCI   0
LEADVILLE      LGT SNOW  11   4  73 N8        29.92F WCI  -1
MONARCH PASS   CLOUDY     5   0  78 MISG      30.01S
SALIDA         SUNNY     29   5  36 W24G32    30.06R WCI  15
SUNLIGHT       LGT SNOW N/A N/A N/A SW5       29.95S VSB 3/4
WILKERSON PASS SUNNY     12   3  67 W15G22    29.88R WCI  -4
$$

COZ069>075-281800-
...SAN LUIS VALLEY/SANGRE DE CRISTO MOUNTAINS...

CITY           SKY/WX    TMP DP  RH WIND       PRES   REMARKS
ALAMOSA        MOSUNNY    8   2  76 CALM      30.09F
LA VETA PASS   NOT AVBL
SAGUACHE       MOSUNNY    3  -6  66 NW6       30.09S WCI  -8
$$

COZ035-036-038>040-281800-
...NORTHERN COLORADO FRONT RANGE...

CITY           SKY/WX    TMP DP  RH WIND       PRES   REMARKS
DENVER INTL AP MOSUNNY   26  12  55 SW7       29.91R WCI  18
DMNS CITY PARK   N/A     25   8  49 W1G8      29.91S
AURORA         MOSUNNY   25   8  48 S7        29.91S WCI  17
FRONT RANGE AP MOSUNNY   27  14  59 SW7       29.91R WCI  19
ERIE MUNI ARPT   N/A    N/A N/A N/A MISG        N/A
BOULDER MUN AP SUNNY     18  10  73 CALM      29.91R
CENTENNIAL     MOSUNNY   22   7  52 CALM      29.90R
BROOMFIELD     MOSUNNY   25  12  58 S5        29.89S WCI  19
FORT COLLINS   MOSUNNY   14  10  85 SE5       29.93F WCI   6
LONGMONT       MOSUNNY   19  12  74 NE6       29.93F WCI  11
$$

COZ041-046-047-076>085-087-088-281800-
...PIKES PEAK/PALMER DIVIDE AND SOUTHERN FOOTHILLS...

CITY           SKY/WX    TMP DP  RH WIND       PRES   REMARKS
COLO. SPRINGS  MOSUNNY   31  12  45 SE8       29.89R WCI  23
A. F. ACADEMY  SUNNY     35   5  29 NE10      29.87F WCI  27
ELLICOTT       NOT AVBL
FALCON         SUNNY     35   4  26 NW8       29.89R WCI  29
FORT CARSON    SUNNY     28  12  52 SE6       29.88S WCI  21
LIMON          MOSUNNY   23  15  71 CALM      29.92R
MONUMENT HILL  SUNNY     27   5  39 E3        29.87S
TRINIDAD       SUNNY     24  10  55 NW7       29.92F WCI  16
$$

COZ042>045-048>051-090-091-281800-
...NORTHEAST COLORADO...

CITY           SKY/WX    TMP DP  RH WIND       PRES   REMARKS
GREELEY ARPT   MOSUNNY    9   0  66 CALM      29.94S
AKRON          CLOUDY    19  12  74 W8        29.94R WCI   9
BURLINGTON     MOSUNNY   23  17  78 CALM      29.97S
WRAY           MOSUNNY   23  13  66 CALM      30.00S
STERLING       PTSUNNY   12  10  92 S3        29.98S
HOLYOKE        MOSUNNY   21  14  73 CALM      29.99F
FORT MORGAN    PTSUNNY   11   6  79 CALM      29.95F
$$

COZ086-089-092>099-281800-
...SOUTHEAST COLORADO...

CITY           SKY/WX    TMP DP  RH WIND       PRES   REMARKS
PUEBLO         SUNNY     23  13  65 CALM      29.94S
LA JUNTA       SUNNY     22  15  75 CALM      29.96F
LAMAR          MOSUNNY   21  16  81 NW6       29.99F WCI  13
SPRINGFIELD      N/A     36  14  40 S10       29.96F
$$



USA.gov is the U.S. government's official web portal to all federal, state and local government web resources and services.